Tracking 21092 objects as of 14-Aug-2020
HD Live streaming from Space Station
objects crossing your sky now
Track the most recent launched group of Starlink satellites

STARLINK-1501

Track STARLINK-1501 now!
10-day predictions
STARLINK-1501 is classified as:


NORAD ID: 45763
Int'l Code: 2020-038AK
Perigee: 385.8 km
Apogee: 388.1 km
Inclination: 53.0 °
Period: 92.1 minutes
Semi major axis: 6757 km
RCS: Unknown
Launch date: June 13, 2020
Source: United States (US)
Launch site: AIR FORCE EASTERN TEST RANGE (AFETR)
aabbcc
Your satellite tracking list
Your tracking list is empty




NASA's NSSDC Master Catalog

Two Line Element Set (TLE):
1 45763U 20038AK  20227.25001157  .00064543  00000-0  70604-3 0  9994
2 45763  53.0001 353.1058 0001699  46.1766 259.8440 15.62718893 10818
Source of the keplerian elements: AFSPC